Location: Mauries
(43.6188°N, 0.3322°W)
Time: 19:53:32
(UTC+00:00)

Cosmos 1302 Rocket - Pass Details

Date: 14 January 2026
Orbit: 752 x 772 km, 74.0° (Epoch: 11 February)

Event Time Altitude Azimuth Distance (km) Brightness Sun altitude
Exits shadow 04:49:33 71° 96° (E) 815 4.1 -28.9°
Drops below altitude 10° 04:54:29 10° 154° (SSE) 2,299 6.8 -28.0°
Sets 04:56:51 0° 156° (SSE) 3,218 7.6 -27.6°
